Location: Worth Mountain WMA
(34.9569°N, 81.4819°W)
Time: 18:26:41
(UTC-04:00)

MetOp-B - Pass Details

Date: 18 August 2017
Orbit: 819 x 821 km, 98.7° (Epoch: 22 September)

Event Time Altitude Azimuth Distance (km) Brightness Sun altitude
Exits shadow 22:40:10 72° 226° (SW) 864 4.1 -27.7°
Maximum altitude 22:40:29 74° 257° (WSW) 854 4.2 -27.7°
Drops below altitude 10° 22:45:50 10° 343° (NNW) 2,421 7.3 -28.5°
Sets 22:48:12 0° 345° (NNW) 3,357 8.2 -28.9°
